DW6599 Weather Reports


Display with metric or nautical units.
time (UTC)temp
F
wind
direction
speed
MPH
gust
MPH
rain 1hr
in
rain 24hr
in
rain mn
in
humidity
%
barometer
mb
20260509173355 85 300 6.0 6.0 0.00 0.00 0.00 55 1010.2
20260509172854 85 300 6.0 6.0 0.00 0.00 0.00 51 1010.3
20260509172354 85 300 6.0 6.0 0.00 0.00 0.00 52 1010.4
20260509171854 85 300 6.0 6.0 0.00 0.00 0.00 55 1010.4
20260509171354 85 300 6.0 6.0 0.00 0.00 0.00 57 1010.4
20260509170854 84 300 6.0 6.0 0.00 0.00 0.00 60 1010.4
20260509170355 84 300 6.0 6.0 0.00 0.00 0.00 60 1010.6
20260509165854 83 70 5.0 5.0 0.00 0.00 0.00 59 1010.6
20260509165354 83 70 5.0 5.0 0.00 0.00 0.00 58 1010.6
20260509164854 83 70 5.0 5.0 0.00 0.00 0.00 57 1010.7
20260509164354 82 70 5.0 5.0 0.00 0.00 0.00 59 1010.8
20260509163854 82 70 5.0 5.0 0.00 0.00 0.00 64 1010.8
20260509163355 82 70 5.0 5.0 0.00 0.00 0.00 62 1010.8
20260509162854 82 70 5.0 5.0 0.00 0.00 0.00 60 1010.8
20260509162354 81 70 5.0 5.0 0.00 0.00 0.00 65 1010.8
20260509161855 81 70 5.0 5.0 0.00 0.00 0.00 65 1010.8
20260509161355 80 70 5.0 5.0 0.00 0.00 0.00 65 1010.8
20260509160855 80 70 5.0 5.0 0.00 0.00 0.00 67 1010.7
20260509160354 79 70 5.0 5.0 0.00 0.00 0.00 68 1010.8
20260509155854 79 100 5.0 5.0 0.00 0.00 0.00 67 1010.8
20260509154854 79 100 5.0 5.0 0.00 0.00 0.00 67 1010.8
20260509154354 78 30 3.0 3.0 0.00 0.00 0.00 71 1010.7
20260509153854 78 30 3.0 3.0 0.00 0.00 0.00 69 1010.7
20260509152355 77 10 3.0 3.0 0.00 0.00 0.00 71 1010.6
20260509151856 77 10 3.0 3.0 0.00 0.00 0.00 72 1010.6
20260509151354 77 10 3.0 3.0 0.00 0.00 0.00 74 1010.7
20260509150855 76 10 3.0 3.0 0.00 0.00 0.00 75 1010.7
20260509150355 75 10 3.0 3.0 0.00 0.00 0.00 76 1010.8
20260509145855 75 10 3.0 3.0 0.00 0.00 0.00 79 1010.9
20260509144355 76 10 3.0 3.0 0.00 0.00 0.00 64 1010.9
20260509143855 76 10 3.0 3.0 0.00 0.00 0.00 64 1010.9
20260509142854 76 10 3.0 3.0 0.00 0.00 0.00 64 1010.9
20260509142355 76 10 3.0 3.0 0.00 0.00 0.00 64 1010.9
20260509141855 76 10 3.0 3.0 0.00 0.00 0.00 64 1010.9
20260509141355 76 10 3.0 3.0 0.00 0.00 0.00 64 1011.0
20260509140854 76 10 3.0 3.0 0.00 0.00 0.00 64 1011.1
20260509140354 76 10 3.0 3.0 0.00 0.00 0.00 64 1011.1
20260509135855 76 10 3.0 3.0 0.00 0.00 0.00 64 1011.1
20260509135354 76 10 3.0 3.0 0.00 0.00 0.00 64 1011.0
20260509133854 76 10 3.0 3.0 0.00 0.00 0.00 64 1011.2
20260509133355 76 10 3.0 3.0 0.00 0.00 0.00 64 1011.2
20260509132855 76 10 3.0 3.0 0.00 0.00 0.00 64 1011.2
20260509132354 76 10 3.0 3.0 0.00 0.00 0.00 64 1011.1
20260509131854 76 10 3.0 3.0 0.00 0.00 0.00 64 1011.2
20260509131354 76 10 3.0 3.0 0.00 0.00 0.00 64 1011.2
20260509130854 76 10 3.0 3.0 0.00 0.00 0.00 64 1011.1
20260509130354 76 10 3.0 3.0 0.00 0.00 0.00 64 1011.1
20260509125855 76 10 3.0 3.0 0.00 0.00 0.00 64 1011.0
20260509125354 76 10 3.0 3.0 0.00 0.00 0.00 64 1011.1
20260509124854 76 10 3.0 3.0 0.00 0.00 0.00 64 1010.9
20260509124354 76 10 3.0 3.0 0.00 0.00 0.00 64 1010.8
20260509123355 76 10 3.0 3.0 0.00 0.00 0.00 64 1010.7
20260509122854 76 10 3.0 3.0 0.00 0.00 0.00 64 1010.5
20260509122354 76 10 3.0 3.0 0.00 0.00 0.00 64 1010.5
20260509121854 76 10 3.0 3.0 0.00 0.00 0.00 64 1010.4
20260509121355 76 10 3.0 3.0 0.00 0.00 0.00 64 1010.2
20260509120354 76 10 3.0 3.0 0.00 0.00 0.00 64 1010.0
20260509114854 76 10 3.0 3.0 0.00 0.00 0.00 64 1010.0
20260509114355 76 10 3.0 3.0 0.00 0.00 0.00 64 1010.0
20260509113855 76 10 3.0 3.0 0.00 0.00 0.00 64 1009.8
20260509112855 76 10 3.0 3.0 0.00 0.00 0.00 64 1009.6
20260509112355 76 10 3.0 3.0 0.00 0.00 0.00 64 1009.6
20260509111854 76 10 3.0 3.0 0.00 0.00 0.00 64 1009.5
20260509111355 76 10 3.0 3.0 0.00 0.00 0.00 64 1009.4
20260509110854 76 10 3.0 3.0 0.00 0.00 0.00 64 1009.4
20260509110355 76 10 3.0 3.0 0.00 0.00 0.00 64 1009.3
20260509105854 76 10 3.0 3.0 0.00 0.00 0.00 64 1009.4
20260509105355 76 10 3.0 3.0 0.00 0.00 0.00 64 1009.4
20260509104854 76 10 3.0 3.0 0.00 0.00 0.00 64 1009.5
20260509104355 76 10 3.0 3.0 0.00 0.00 0.00 64 1009.4
20260509103854 76 10 3.0 3.0 0.00 0.00 0.00 64 1009.4
20260509103355 76 10 3.0 3.0 0.00 0.00 0.00 64 1009.4
20260509102855 76 10 3.0 3.0 0.00 0.00 0.00 64 1009.3
20260509102355 76 10 3.0 3.0 0.00 0.00 0.00 64 1009.3
20260509101855 76 10 3.0 3.0 0.00 0.00 0.00 64 1009.3
20260509101355 76 10 3.0 3.0 0.00 0.00 0.00 64 1009.3
20260509100855 76 10 3.0 3.0 0.00 0.00 0.00 64 1009.3
20260509095855 76 20 3.0 3.0 0.00 0.00 0.00 64 1009.4
20260509095355 76 20 3.0 3.0 0.00 0.00 0.00 64 1009.4
20260509094355 76 20 5.0 5.0 0.00 0.00 0.00 64 1009.2
20260509093854 76 20 5.0 5.0 0.00 0.00 0.00 64 1009.2
20260509093355 76 20 5.0 5.0 0.00 0.00 0.00 64 1009.3
20260509092855 76 30 5.0 5.0 0.00 0.00 0.00 64 1009.3
20260509092355 76 30 5.0 5.0 0.00 0.00 0.00 64 1009.4
20260509091855 76 30 5.0 5.0 0.00 0.00 0.00 64 1009.4
20260509091355 76 30 5.0 5.0 0.00 0.00 0.00 64 1009.5
20260509090855 76 30 5.0 5.0 0.00 0.00 0.00 64 1009.5
20260509090355 76 30 5.0 5.0 0.00 0.00 0.00 64 1009.5
20260509085855 76 10 5.0 5.0 0.00 0.00 0.00 64 1009.5
20260509085355 76 10 5.0 5.0 0.00 0.00 0.00 64 1009.3
20260509084355 76 30 5.0 5.0 0.00 0.00 0.00 64 1009.5
20260509083855 76 30 5.0 5.0 0.00 0.00 0.00 64 1009.6
20260509083354 76 30 5.0 5.0 0.00 0.00 0.00 64 1009.6
20260509082854 76 30 5.0 5.0 0.00 0.00 0.00 64 1009.7
20260509082354 76 30 5.0 5.0 0.00 0.00 0.00 64 1009.7
20260509081854 76 30 5.0 5.0 0.00 0.00 0.00 64 1009.8
20260509081355 76 30 5.0 5.0 0.00 0.00 0.00 64 1009.7
20260509080855 76 30 5.0 5.0 0.00 0.00 0.00 64 1009.9
20260509080354 76 30 5.0 5.0 0.00 0.00 0.00 64 1009.9
20260509075855 76 30 5.0 5.0 0.00 0.00 0.00 64 1009.9
20260509075355 76 30 5.0 5.0 0.00 0.00 0.00 64 1009.9
20260509074854 76 30 5.0 5.0 0.00 0.00 0.00 64 1010.0
20260509074354 76 30 5.0 5.0 0.00 0.00 0.00 64 1010.0
20260509073355 76 30 5.0 5.0 0.00 0.00 0.00 64 1010.1
20260509072855 76 180 5.0 5.0 0.00 0.00 0.00 64 1010.0
20260509072355 76 180 5.0 5.0 0.00 0.00 0.00 64 1010.0
20260509071855 76 180 5.0 5.0 0.00 0.00 0.00 64 1010.0
20260509071355 76 180 5.0 5.0 0.00 0.00 0.00 64 1010.0
20260509070855 76 180 5.0 5.0 0.00 0.00 0.00 64 1010.0
20260509065855 76 180 5.0 5.0 0.00 0.00 0.00 64 1010.0
20260509065354 76 180 5.0 5.0 0.00 0.00 0.00 64 1010.0
20260509064855 76 180 5.0 5.0 0.00 0.00 0.00 64 1009.9
20260509064355 76 180 5.0 5.0 0.00 0.00 0.00 64 1009.8
20260509063855 76 180 5.0 5.0 0.00 0.00 0.00 64 1009.7
20260509063355 76 180 5.0 5.0 0.00 0.00 0.00 64 1009.7
20260509062355 76 210 5.0 5.0 0.00 0.00 0.00 64 1009.9
20260509061856 76 210 5.0 5.0 0.00 0.00 0.00 64 1009.9
20260509061354 76 210 5.0 5.0 0.00 0.00 0.00 64 1009.7
20260509060855 76 210 5.0 5.0 0.00 0.00 0.00 64 1009.8
20260509060355 76 210 5.0 5.0 0.00 0.00 0.00 64 1009.7
20260509055855 76 70 5.0 5.0 0.00 0.00 0.00 64 1009.9
20260509055355 76 70 5.0 5.0 0.00 0.00 0.00 64 1010.0
20260509054855 76 70 5.0 5.0 0.00 0.00 0.00 64 1010.0
20260509054355 76 70 5.0 5.0 0.00 0.00 0.00 64 1010.0
20260509053855 76 70 5.0 5.0 0.00 0.00 0.00 64 1010.0
20260509053355 76 70 5.0 5.0 0.00 0.00 0.00 64 1010.0
20260509052355 76 190 5.0 5.0 0.00 0.00 0.00 64 1009.8
20260509051355 76 190 5.0 5.0 0.00 0.00 0.00 64 1009.8
20260509050355 76 190 5.0 6.0 0.00 0.00 0.00 64 1009.9
20260509045854 76 200 6.0 6.0 0.00 0.00 0.00 64 1010.1
20260509044355 76 180 7.0 7.0 0.00 0.00 0.00 64 1010.1
20260509043855 76 180 7.0 7.0 0.00 0.00 0.00 64 1010.0
20260509043356 76 180 7.0 8.0 0.00 0.00 0.00 64 1010.1
20260509042356 76 190 8.0 8.0 0.00 0.00 0.00 64 1009.9
20260509041856 76 190 8.0 8.0 0.00 0.00 0.00 64 1009.7
20260509041354 76 190 8.0 8.0 0.00 0.00 0.00 64 1009.2
20260509040856 76 190 8.0 8.0 0.00 0.00 0.00 64 1009.0
20260509035355 76 320 5.0 5.0 0.00 0.00 0.00 64 1010.0
20260509033855 76 300 5.0 5.0 0.00 0.00 0.00 64 1010.7
20260509033354 76 300 5.0 6.0 0.00 0.00 0.00 64 1010.8
20260509032856 76 140 6.0 6.0 0.00 0.00 0.00 64 1010.7
20260509031855 76 140 6.0 6.0 0.00 0.00 0.00 64 1010.3
20260509031355 76 140 6.0 6.0 0.00 0.00 0.00 64 1010.4
20260509030855 76 140 6.0 6.0 0.00 0.00 0.00 64 1009.9
20260509030355 76 140 6.0 6.0 0.00 0.00 0.00 64 1009.9
20260509025856 76 100 3.0 3.0 0.00 0.00 0.00 64 1009.7
20260509025355 76 100 3.0 3.0 0.00 0.00 0.00 64 1009.8
20260509024855 76 100 3.0 6.0 0.00 0.00 0.00 64 1009.8
20260509024355 76 140 6.0 6.0 0.00 0.00 0.00 64 1009.8
20260509023855 76 140 6.0 6.0 0.00 0.00 0.00 64 1009.9
20260509023356 76 140 6.0 9.0 0.00 0.00 0.00 64 1010.0
20260509022355 76 160 9.0 9.0 0.00 0.00 0.00 64 1009.8
20260509021855 76 160 9.0 9.0 0.00 0.00 0.00 64 1009.7
20260509021355 76 160 9.0 9.0 0.00 0.00 0.00 64 1009.4
20260509020855 76 160 9.0 9.0 0.00 0.00 0.00 64 1009.3
20260509020355 76 160 9.0 9.0 0.00 0.00 0.00 64 1009.2
20260509015856 76 170 7.0 7.0 0.00 0.00 0.00 64 1008.8
20260509015355 76 170 7.0 7.0 0.00 0.00 0.00 64 1008.4
20260509014855 76 170 7.0 7.0 0.00 0.00 0.00 64 1008.3
20260509014355 76 170 6.0 6.0 0.00 0.00 0.00 64 1008.4
20260509013855 76 170 6.0 6.0 0.00 0.00 0.00 64 1008.6
20260509013355 76 170 6.0 7.0 0.00 0.00 0.00 64 1008.4
20260509012855 76 170 7.0 7.0 0.00 0.00 0.00 64 1008.3
20260509010855 76 170 7.0 7.0 0.00 0.00 0.00 64 1007.9
20260509010355 76 170 7.0 7.0 0.00 0.00 0.00 64 1007.8
20260509005855 76 130 7.0 7.0 0.00 0.00 0.00 64 1008.0
20260509004856 76 130 7.0 10.0 0.00 0.00 0.00 64 1007.8
20260509004355 76 160 10.0 10.0 0.00 0.00 0.00 64 1007.5
20260509003855 76 160 10.0 10.0 0.00 0.00 0.00 64 1007.7
20260509003355 76 160 10.0 10.0 0.00 0.00 0.00 64 1007.5
20260509002855 76 160 8.0 8.0 0.00 0.00 0.00 64 1007.4
20260509002355 76 160 8.0 8.0 0.00 0.00 0.00 63 1007.2
20260509001856 77 160 8.0 8.0 0.00 0.00 0.00 63 1007.2
20260509001356 77 160 8.0 8.0 0.00 0.00 0.00 61 1007.1
20260509000355 78 160 8.0 8.0 0.00 0.00 0.00 59 1007.2
20260508235355 79 160 7.0 7.0 0.00 0.00 0.00 57 1007.5
20260508234855 79 160 7.0 7.0 0.00 0.00 0.00 57 1007.5
20260508234355 80 170 7.0 7.0 0.00 0.00 0.00 56 1007.5
20260508233855 80 170 7.0 7.0 0.00 0.00 0.00 56 1007.4
20260508233355 80 170 7.0 9.0 0.00 0.00 0.00 56 1007.2
20260508232355 80 150 9.0 9.0 0.00 0.00 0.00 56 1007.3
20260508231855 80 150 9.0 9.0 0.00 0.00 0.00 55 1007.3
20260508230855 80 150 9.0 9.0 0.00 0.00 0.00 56 1007.2
20260508230355 80 150 9.0 9.0 0.00 0.00 0.00 54 1007.3
20260508225855 80 140 9.0 9.0 0.00 0.00 0.00 55 1007.2
20260508225356 81 140 9.0 9.0 0.00 0.00 0.00 54 1007.2
20260508224855 81 140 9.0 9.0 0.00 0.00 0.00 54 1007.3
20260508223855 81 160 9.0 9.0 0.00 0.00 0.00 52 1007.5
20260508223355 82 160 9.0 9.0 0.00 0.00 0.00 52 1007.5
20260508222855 82 160 9.0 9.0 0.00 0.00 0.00 52 1007.5
20260508222355 82 160 9.0 9.0 0.00 0.00 0.00 52 1007.6
20260508221855 82 160 9.0 9.0 0.00 0.00 0.00 52 1007.6
20260508221356 82 160 9.0 9.0 0.00 0.00 0.00 53 1007.6
20260508220856 81 160 9.0 9.0 0.00 0.00 0.00 53 1007.6
20260508215855 81 170 10.0 10.0 0.00 0.00 0.00 52 1007.8
20260508215355 81 170 10.0 10.0 0.00 0.00 0.00 52 1007.9
20260508214855 81 170 10.0 20.0 0.00 0.00 0.00 54 1007.9
20260508213855 80 170 9.0 20.0 0.00 0.00 0.00 52 1008.0
20260508212855 81 160 10.0 10.0 0.00 0.00 0.00 51 1008.1
20260508212355 82 160 10.0 10.0 0.00 0.00 0.00 51 1008.2
20260508211855 82 160 10.0 10.0 0.00 0.00 0.00 50 1008.3
20260508211355 82 160 10.0 10.0 0.00 0.00 0.00 50 1008.4
20260508210856 82 160 10.0 10.0 0.00 0.00 0.00 49 1008.6
20260508210355 82 160 10.0 18.0 0.00 0.00 0.00 51 1008.6
20260508205855 82 170 12.0 18.0 0.00 0.00 0.00 50 1008.6
20260508205355 82 170 12.0 18.0 0.00 0.00 0.00 49 1008.8
20260508204355 82 150 10.0 10.0 0.00 0.00 0.00 49 1008.9
20260508203356 82 150 10.0 12.0 0.00 0.00 0.00 49 1009.0
20260508202855 82 150 12.0 12.0 0.00 0.00 0.00 46 1009.0
20260508202355 82 150 12.0 12.0 0.00 0.00 0.00 47 1009.1
20260508201355 82 150 12.0 12.0 0.00 0.00 0.00 48 1009.2
20260508200856 82 150 12.0 12.0 0.00 0.00 0.00 49 1009.2
20260508200355 82 150 12.0 13.0 0.00 0.00 0.00 48 1009.4
20260508195855 82 140 13.0 13.0 0.00 0.00 0.00 51 1009.5
20260508195355 81 140 13.0 13.0 0.00 0.00 0.00 52 1009.4
20260508194855 81 140 13.0 13.0 0.00 0.00 0.00 50 1009.5
20260508194356 81 140 12.0 12.0 0.00 0.00 0.00 50 1009.5
20260508193856 81 140 12.0 12.0 0.00 0.00 0.00 52 1009.6
20260508192356 80 140 12.0 12.0 0.00 0.00 0.00 51 1009.8
20260508191856 79 140 12.0 12.0 0.00 0.00 0.00 51 1009.8
20260508191355 79 140 12.0 12.0 0.00 0.00 0.00 50 1009.9
20260508190856 79 140 12.0 12.0 0.00 0.00 0.00 51 1010.0
20260508190356 79 140 12.0 12.0 0.00 0.00 0.00 53 1010.1
20260508185356 79 140 10.0 10.0 0.00 0.00 0.00 55 1010.2
20260508184856 79 140 10.0 13.0 0.00 0.00 0.00 53 1010.4
20260508183355 78 140 13.0 13.0 0.00 0.00 0.00 52 1010.5
20260508182855 78 130 10.0 10.0 0.00 0.00 0.00 52 1010.7
20260508182356 78 130 10.0 10.0 0.00 0.00 0.00 54 1010.8
20260508181856 77 130 10.0 10.0 0.00 0.00 0.00 54 1010.9
20260508180856 77 130 10.0 10.0 0.00 0.00 0.00 55 1011.3
20260508180356 77 130 10.0 20.0 0.00 0.00 0.00 56 1011.4
20260508175855 77 140 13.0 20.0 0.00 0.00 0.00 54 1011.6
20260508175356 77 140 13.0 20.0 0.00 0.00 0.00 52 1011.8
20260508174856 77 140 13.0 20.0 0.00 0.00 0.00 53 1011.8
20260508173855 77 160 10.0 10.0 0.00 0.00 0.00 53 1011.9